Regional Weather Roundup
Issued by NWS Sioux Falls, SD

Home | Current Version | Previous Version | Text Only | Print | Product List | Glossary Off
Versions: 1 2 3 4 5 6 7 8 9 10 11 12 13 14 15 16 17 18 19 20 21 22 23 24 25 26 27 28 29 30 31 32 33 34 35 36 37 38 39 40 41 42 43 44 45 46 47 48 49 50

000
ASUS43 KFSD 200410
RWRFSD

WEATHER ROUNDUP FOR SE SOUTH DAKOTA/SW MINNESOTA/NW IOWA
NATIONAL WEATHER SERVICE SIOUX FALLS SD
1100 PM CDT FRI SEP 19 2014

NOTE: "FAIR" INDICATES FEW OR NO CLOUDS BELOW 12,000 FEET WITH NO
SIGNIFICANT WEATHER AND OR OBSTRUCTIONS TO VISIBILITY.


SDZ038>040-050-052>070-200500-
SOUTHEAST SOUTH DAKOTA

CITY           SKY/WX    TMP DP  RH WIND       PRES   REMARKS
CHAMBERLAIN    PTCLDY    71  56  57 N6        29.79R
HURON          CLEAR     62  55  77 NW6       29.74S
MADISON        FAIR      68  63  83 W7        29.75R
MITCHELL       CLEAR     68  59  73 W5        29.75R
SIOUX FALLS    CLOUDY    72  65  78 NW6       29.73R
WINNER         FAIR      72  56  57 W3        29.82R
YANKTON        MOCLDY    73  64  73 SW6       29.74F
$$

MNZ071-072-080-081-089-090-097-098-200500-
SOUTHWEST MINNESOTA

CITY           SKY/WX    TMP DP  RH WIND       PRES   REMARKS
FAIRMONT       CLOUDY    73  61  64 W6        29.76R THUNDER
JACKSON        CLOUDY    70  64  83 S13       29.75F
LUVERNE        PTCLDY    70  64  83 S5        29.73S
MARSHALL       PTCLDY    68  63  83 W8        29.68S
MONTEVIDEO     PTCLDY    66  63  88 W3        29.67F
PIPESTONE      MOCLDY    68  61  77 S6        29.74R
REDWOOD FALLS  CLOUDY    71  66  84 W8        29.67F
TRACY          CLOUDY    71  67  86 CALM      29.71R
WINDOM         CLOUDY    73  63  68 S9        29.72R
WORTHINGTON    CLOUDY    72  64  78 S7        29.75S
$$

IAZ001>003-012>014-020>022-031-032-NEZ013-014-SDZ071-200500-
NORTHWEST IOWA

CITY           SKY/WX    TMP DP  RH WIND       PRES   REMARKS
CHEROKEE       RAIN      74  70  87 NW12G21   29.75R
DENISON        PTCLDY    72  70  94 S17G28    29.77S
ESTHERVILLE    HVY RAIN  68  67  96 NW10G24   29.81R FOG
LE MARS        LGT RAIN  68  64  88 VRB6      29.78R
ORANGE CITY    LGT RAIN  72  66  83 SW10G21   29.76R
SHELDON        CLOUDY    68  66  94 SW7G14    29.76F
SIOUX CITY     CLOUDY    77  67  71 NW17G26   29.77R
SPENCER        TSTM      65  64  97 N15       29.81R FOG
STORM LAKE     MOCLDY    72  72 100 S15G29    29.73F
$$

ABBREVIATIONS USED IN REMARKS
   TC - TEMPERATURE IN CELSIUS
  WCI - WIND CHILL INDEX
   HX - HEAT INDEX
  VSB - VISIBILITY



USA.gov is the U.S. government's official web portal to all federal, state and local government web resources and services.